Wind_Speed
30 31 33 36 39 40 42 43 44 44 43 42 40 37 34 32 31 31 30 29 30 33 27 24 25 27 27 29 28 30 31 30 34 35 31 30 27 26 23 22 21 19 17 16 17
33 33 34 34 35 37 39 41 44 46 46 46 45 43 39 35 33 34 32 32 33 33 31 24 25 27 28 29 30 31 28 28 36 38 36 34 31 29 26 24 22 20 19 19 20
38 38 38 38 38 38 38 40 41 43 45 46 48 48 47 43 37 36 35 34 35 34 34 29 26 29 28 30 30 31 26 31 38 41 40 36 34 32 29 26 25 24 21 20 22
38 40 41 41 41 41 41 41 41 42 43 45 47 47 50 51 46 39 39 37 36 36 35 35 32 31 30 31 32 31 29 33 39 43 43 40 36 34 31 30 29 27 25 24 26
44 45 44 45 46 46 46 45 45 45 45 45 45 47 47 52 50 48 44 43 40 40 39 39 37 34 33 32 34 33 31 35 41 44 45 43 38 36 33 34 32 29 28 28 28
47 48 49 51 50 53 51 51 51 50 49 49 49 47 48 49 51 52 52 48 45 42 42 42 38 39 37 34 34 33 34 36 41 45 46 46 42 38 34 36 35 33 30 30 30
52 55 56 56 58 59 58 58 57 58 59 54 54 53 51 48 48 51 53 54 52 48 45 43 44 40 41 39 36 36 37 38 39 44 48 49 47 34 34 40 37 33 33 32 32
55 55 57 60 62 63 65 64 65 63 64 64 62 59 56 52 50 50 54 56 57 55 51 49 46 46 42 43 40 37 40 41 39 42 48 51 45 41 41 41 37 36 35 34 34
56 56 57 58 60 62 65 65 67 68 71 70 68 67 62 62 56 53 56 54 60 60 58 55 52 48 46 45 44 40 40 42 40 42 47 54 47 42 46 42 40 38 36 36 36
56 58 59 60 62 66 68 69 69 70 72 73 73 74 70 69 66 59 58 59 59 62 63 62 60 54 48 46 45 43 40 39 37 39 45 52 52 45 50 45 44 41 37 36 36
58 59 60 61 63 66 68 69 71 71 72 73 76 80 77 77 74 69 64 64 64 63 67 67 67 61 50 46 44 45 43 39 39 43 49 53 54 50 53 50 46 43 38 37 37
58 59 61 64 67 68 71 75 79 83 80 75 78 80 84 83 82 77 71 70 68 67 65 69 71 64 56 53 50 46 45 42 42 46 49 52 53 52 54 52 48 44 42 39 38
59 61 63 65 68 72 77 82 88 91 89 84 85 82 82 88 87 84 80 75 74 72 70 68 68 66 61 56 53 48 45 44 44 46 50 52 54 53 51 53 50 48 44 42 39
60 63 66 70 73 78 82 89 94 99 99 85 90 88 81 84 90 87 86 82 78 76 73 72 68 69 68 63 58 55 48 48 47 47 49 52 57 52 51 52 51 49 48 45 40
60 65 71 77 79 82 88 94 96 96 88 74 69 66 73 69 76 83 82 80 82 78 77 75 70 71 71 67 63 59 50 49 48 50 53 50 57 53 53 53 50 48 48 47 47
63 70 76 82 84 88 93 93 85 65 64 58 49 43 39 32 59 69 80 79 80 77 78 76 73 68 64 64 59 59 53 50 49 51 57 48 52 57 49 50 46 47 47 49 49
67 74 81 84 86 91 85 69 57 53 43 44 36 25 29 24 34 42 52 66 80 82 85 84 81 74 69 67 65 65 61 59 56 56 53 54 53 56 47 46 42 43 46 48 47
72 76 82 85 89 79 57 39 44 44 38 35 31 37 39 26 16 15 32 42 58 69 78 79 83 78 74 72 69 70 69 67 65 62 58 57 55 54 47 45 42 43 41 43 45
74 78 80 86 75 55 40 40 41 35 33 33 35 36 36 19 20 25 23 36 40 51 66 75 79 79 75 70 66 69 70 64 62 61 61 58 48 52 44 37 42 40 36 43 43
76 77 82 72 55 43 40 40 39 31 31 31 36 36 45 30 20 18 22 19 28 41 53 64 75 75 75 72 68 65 63 65 62 61 61 58 53 42 43 41 41 38 46 45 44
75 77 73 54 42 35 33 30 28 27 30 33 31 38 38 36 21 9 25 18 24 31 41 56 67 73 72 79 74 70 71 69 61 60 60 58 54 46 40 34 34 38 40 43 43
75 77 62 45 36 34 31 31 31 30 30 32 34 33 40 51 43 20 17 18 21 26 38 44 57 64 70 69 70 72 62 65 64 67 69 65 61 53 48 40 34 30 28 35 38
73 71 47 32 31 30 32 30 33 27 26 29 35 28 32 46 36 19 18 7 25 23 37 42 50 52 52 67 65 67 68 66 63 64 66 62 57 51 47 37 31 28 28 25 32
70 59 38 30 29 31 31 31 30 26 26 29 34 29 31 38 42 24 13 6 25 30 35 28 43 54 50 66 68 72 67 65 63 67 68 69 62 60 54 48 36 29 29 30 29
63 46 34 31 29 32 32 31 29 27 27 25 27 20 17 30 38 32 21 17 25 36 30 33 36 39 58 54 56 62 61 60 62 61 67 66 65 61 57 51 40 34 33 34 33
52 38 32 28 29 34 32 30 29 23 28 25 28 23 17 19 20 23 38 31 26 38 37 35 43 43 39 47 52 57 63 58 53 56 62 66 63 59 58 52 50 46 43 36 34
41 24 28 24 23 28 28 25 23 22 20 28 25 27 22 19 21 24 36 41 39 39 41 29 28 39 45 43 52 54 55 63 66 62 56 64 63 56 54 53 48 44 42 39 39
Wind_Direction
284 283 282 281 279 277 275 274 272 270 269 268 269 268 268 269 272 268 260 257 259 264 263 258 263 259 256 256 251 246 238 231 220 217 214 213 206 209 209 207 209 211 214 213 203
288 286 284 284 283 282 279 277 275 273 269 266 265 267 264 262 265 269 263 262 256 259 263 258 257 258 254 254 252 248 240 231 221 219 217 212 209 211 209 209 209 213 212 212 202
289 289 288 285 283 279 278 278 277 275 272 270 265 262 264 261 259 262 266 261 261 255 260 257 257 254 253 251 252 247 238 232 220 219 220 212 212 211 208 210 211 213 213 211 207
285 284 285 284 284 283 282 279 276 275 273 273 270 265 260 261 256 257 260 260 256 255 253 257 257 255 249 248 248 246 238 231 223 220 221 216 213 214 210 212 214 211 210 210 210
290 288 287 285 283 280 280 278 278 276 274 271 270 268 262 261 258 253 254 255 255 254 252 252 256 255 249 246 245 244 240 232 226 222 223 223 215 216 213 216 217 216 212 210 212
289 289 287 286 283 283 280 278 277 274 272 272 269 266 264 261 259 254 251 250 252 252 252 251 251 252 250 247 245 242 240 236 228 224 222 227 221 216 215 221 219 217 217 213 213
292 291 290 288 287 285 280 278 275 275 276 269 267 266 264 262 261 256 253 250 249 250 250 250 250 248 249 248 244 244 238 238 230 228 224 227 226 213 220 223 220 219 218 218 217
291 290 289 289 288 286 284 282 279 276 272 269 268 265 264 259 257 259 253 249 248 247 248 246 247 247 247 248 244 242 240 237 233 231 228 229 225 223 223 225 223 221 220 220 221
288 288 287 285 283 280 277 274 274 275 275 272 267 264 261 261 256 254 257 251 248 246 245 247 245 246 245 244 245 242 243 239 235 235 234 228 224 227 229 225 225 222 221 220 223
294 293 291 288 285 282 278 277 275 272 269 268 268 267 263 260 258 251 251 253 249 245 244 243 244 242 245 246 245 246 245 242 241 238 239 233 223 222 232 228 226 224 219 221 223
297 295 294 292 288 286 284 281 277 273 269 267 266 262 261 260 254 253 247 246 247 245 242 239 242 242 243 250 249 247 243 241 236 237 236 234 225 224 228 231 228 228 222 218 219
298 299 298 298 297 298 298 296 294 287 274 271 270 261 262 252 253 253 250 245 244 246 245 242 238 240 241 243 245 242 240 240 237 235 237 236 231 226 229 229 232 233 230 222 220
300 302 305 306 305 305 304 304 302 298 293 280 277 268 263 258 253 247 250 246 242 241 243 243 240 241 240 241 245 246 244 240 240 238 238 238 234 228 231 231 230 232 235 232 226
304 308 311 311 310 309 309 308 307 302 299 291 282 274 264 258 250 245 246 246 242 239 239 240 239 237 235 234 240 242 241 239 237 237 240 240 239 229 230 232 230 231 234 235 233
308 312 313 313 311 310 310 310 308 301 295 291 283 277 269 258 249 240 238 240 241 239 238 239 237 239 234 232 233 238 239 239 238 238 236 234 241 223 229 232 232 232 231 233 234
310 312 312 312 311 310 311 311 304 291 286 291 287 268 265 251 239 238 235 234 236 234 233 235 236 235 238 235 234 237 238 238 239 239 240 235 241 228 226 235 234 236 235 233 233
310 312 313 311 311 312 312 304 288 282 296 299 297 245 226 237 246 236 240 236 230 230 229 229 231 230 231 231 227 229 232 234 234 236 242 239 239 240 232 232 235 237 237 236 235
311 313 313 311 312 313 300 284 279 290 300 301 297 234 227 236 228 226 250 240 230 229 230 230 231 228 227 230 228 229 228 232 233 236 237 238 236 241 234 234 235 234 235 236 235
311 314 315 313 313 302 282 274 276 293 306 300 289 267 216 217 221 230 242 237 227 225 226 228 228 229 229 233 232 225 226 230 233 236 239 242 241 241 241 235 240 230 225 234 235
313 315 315 315 302 283 275 277 282 290 290 283 293 295 211 211 208 209 224 246 246 227 219 227 228 226 227 228 228 228 231 227 228 234 239 240 240 240 242 239 235 234 231 235 237
315 317 318 307 286 276 282 285 284 281 283 288 291 290 247 200 201 200 216 220 252 227 228 219 229 226 226 225 226 226 224 224 227 234 241 244 243 241 244 247 243 239 236 235 237
317 316 315 301 277 273 283 285 277 271 284 293 295 296 254 243 228 249 201 241 240 233 222 220 221 233 226 227 228 227 228 230 228 226 226 229 232 239 236 237 233 229 229 227 231
317 316 306 288 280 281 282 282 278 278 275 287 295 285 262 245 243 245 235 296 251 234 222 217 221 231 228 226 225 226 226 228 226 228 233 237 238 241 242 243 245 232 227 223 222
316 310 297 277 272 270 291 287 284 287 285 276 296 290 245 239 235 239 229 263 261 220 229 226 225 218 239 229 227 225 222 222 225 222 225 224 230 236 235 233 233 231 213 216 219
314 303 293 280 277 281 285 289 291 285 277 279 288 282 267 227 232 256 254 222 246 216 223 222 224 225 225 231 231 227 229 227 222 222 223 224 230 231 236 236 232 224 210 203 212
307 292 285 281 280 280 283 292 289 285 279 266 286 277 280 230 228 239 258 231 223 227 221 212 221 227 220 219 230 229 222 218 221 224 223 224 226 231 232 235 235 233 222 215 215
301 278 288 289 288 281 285 292 284 278 271 276 281 286 262 250 248 231 249 244 225 234 228 210 184 206 220 214 221 231 228 223 221 217 219 224 225 225 228 232 234 233 232 230 225
Height
5753 5753 5752 5751 5751 5750 5750 5750 5751 5751 5752 5753 5754 5756 5757 5758 5758 5758 5758 5757 5757 5758 5759 5760 5762 5764 5765 5768 5769 5771 5774 5781 5786 5788 5793 5797 5799 5802 5806 5809 5811 5814 5816 5819 5822
5746 5746 5744 5743 5742 5742 5742 5742 5742 5742 5743 5745 5746 5746 5750 5751 5751 5751 5752 5751 5751 5751 5753 5754 5756 5758 5759 5762 5764 5765 5771 5776 5779 5783 5786 5790 5794 5797 5802 5805 5808 5810 5812 5816 5819
5738 5737 5736 5736 5736 5735 5734 5734 5733 5733 5734 5735 5737 5738 5739 5742 5744 5744 5744 5744 5745 5745 5746 5748 5749 5750 5753 5755 5758 5761 5767 5769 5772 5775 5780 5784 5789 5792 5796 5801 5803 5805 5809 5812 5816
5731 5730 5729 5727 5726 5725 5725 5725 5725 5724 5724 5725 5726 5728 5730 5730 5734 5737 5736 5737 5737 5738 5738 5740 5742 5743 5746 5748 5751 5755 5760 5762 5766 5770 5774 5778 5783 5788 5792 5796 5798 5801 5804 5808 5811
5720 5720 5718 5717 5717 5716 5715 5714 5714 5715 5714 5715 5715 5717 5719 5720 5726 5724 5728 5728 5729 5729 5730 5731 5735 5736 5737 5740 5744 5747 5753 5755 5758 5763 5768 5772 5777 5781 5788 5790 5793 5797 5800 5802 5806
5710 5709 5707 5707 5705 5704 5703 5703 5702 5703 5703 5704 5704 5706 5709 5711 5711 5713 5715 5718 5720 5721 5721 5723 5725 5727 5729 5732 5736 5741 5744 5747 5751 5755 5760 5766 5770 5775 5783 5784 5789 5792 5795 5798 5801
5697 5696 5695 5693 5691 5691 5690 5688 5690 5690 5689 5690 5691 5693 5697 5701 5699 5701 5703 5707 5709 5711 5712 5713 5715 5717 5720 5723 5727 5732 5735 5739 5744 5748 5752 5756 5762 5775 5774 5774 5781 5787 5790 5793 5796
5687 5685 5683 5681 5678 5676 5675 5673 5673 5673 5675 5675 5676 5680 5683 5689 5688 5688 5688 5692 5695 5698 5701 5702 5704 5706 5710 5713 5717 5723 5726 5730 5737 5739 5744 5747 5760 5766 5764 5769 5775 5779 5783 5788 5791
5675 5672 5670 5668 5664 5662 5660 5659 5659 5659 5658 5659 5661 5663 5671 5671 5676 5676 5675 5681 5679 5684 5688 5690 5693 5695 5699 5702 5707 5713 5717 5722 5727 5730 5733 5737 5751 5756 5755 5762 5767 5772 5776 5781 5785
5661 5658 5654 5650 5647 5644 5642 5641 5641 5641 5642 5642 5644 5646 5656 5653 5654 5662 5662 5663 5665 5667 5672 5677 5679 5683 5688 5691 5697 5702 5707 5712 5718 5723 5724 5727 5739 5745 5745 5753 5758 5763 5769 5774 5779
5645 5642 5638 5632 5629 5625 5623 5621 5622 5624 5624 5625 5626 5627 5631 5629 5634 5638 5645 5645 5648 5651 5654 5660 5663 5672 5683 5685 5689 5692 5696 5701 5707 5709 5711 5716 5725 5734 5736 5742 5749 5755 5763 5768 5772
5631 5626 5621 5615 5608 5602 5597 5591 5589 5587 5597 5608 5606 5605 5604 5607 5610 5619 5621 5627 5630 5636 5639 5643 5648 5662 5669 5672 5674 5680 5685 5692 5695 5698 5701 5704 5713 5722 5726 5735 5743 5748 5753 5759 5764
5615 5609 5603 5596 5590 5583 5576 5571 5563 5556 5561 5579 5572 5579 5576 5575 5588 5597 5594 5602 5610 5614 5621 5626 5636 5646 5654 5660 5665 5671 5676 5681 5684 5687 5689 5692 5699 5711 5717 5725 5733 5740 5745 5751 5757
5599 5592 5584 5577 5572 5563 5555 5546 5537 5520 5521 5554 5529 5536 5544 5538 5549 5565 5570 5574 5583 5597 5602 5605 5620 5627 5634 5646 5654 5657 5665 5667 5671 5674 5677 5682 5684 5700 5707 5713 5723 5731 5736 5742 5749
5583 5575 5566 5556 5551 5543 5536 5524 5511 5493 5485 5513 5502 5497 5497 5509 5520 5530 5539 5543 5563 5572 5581 5595 5603 5608 5617 5633 5639 5646 5652 5655 5658 5660 5662 5671 5673 5693 5698 5704 5714 5721 5726 5732 5736
5569 5560 5550 5539 5529 5520 5511 5499 5484 5475 5464 5481 5474 5477 5479 5475 5485 5494 5508 5520 5537 5545 5562 5572 5580 5593 5609 5617 5626 5632 5638 5643 5646 5648 5648 5667 5667 5679 5693 5699 5703 5707 5713 5719 5725
5553 5544 5531 5519 5510 5498 5483 5473 5466 5462 5466 5463 5462 5461 5466 5472 5473 5475 5486 5496 5508 5520 5535 5548 5555 5575 5585 5593 5603 5612 5622 5626 5632 5634 5645 5651 5656 5670 5683 5689 5692 5696 5701 5707 5715
5537 5529 5516 5498 5489 5478 5466 5461 5453 5456 5458 5457 5453 5449 5452 5461 5464 5464 5470 5477 5490 5503 5516 5528 5540 5557 5568 5577 5590 5596 5601 5612 5618 5624 5632 5635 5647 5655 5671 5678 5681 5686 5689 5695 5702
5521 5512 5501 5480 5468 5460 5455 5450 5449 5452 5453 5447 5443 5438 5448 5452 5450 5456 5461 5466 5477 5489 5499 5509 5520 5538 5554 5566 5575 5581 5584 5608 5607 5613 5621 5629 5643 5648 5658 5668 5669 5675 5678 5682 5689
5503 5496 5482 5466 5452 5447 5445 5444 5444 5446 5443 5441 5436 5434 5436 5441 5444 5447 5450 5459 5467 5477 5485 5495 5506 5519 5536 5543 5551 5567 5588 5586 5593 5604 5613 5622 5630 5640 5646 5652 5656 5662 5669 5671 5678
5484 5476 5466 5451 5442 5439 5437 5438 5437 5439 5436 5434 5433 5428 5430 5432 5434 5437 5445 5449 5457 5466 5473 5483 5488 5504 5510 5519 5543 5551 5553 5569 5588 5598 5608 5616 5624 5632 5635 5640 5647 5652 5657 5662 5668
5465 5455 5448 5438 5434 5433 5433 5432 5431 5434 5431 5427 5425 5423 5421 5420 5426 5433 5437 5444 5450 5457 5462 5474 5480 5483 5499 5514 5525 5533 5548 5562 5571 5583 5592 5599 5611 5615 5625 5630 5638 5643 5647 5652 5657
5449 5438 5430 5426 5425 5426 5425 5424 5422 5425 5425 5422 5418 5416 5411 5414 5419 5426 5430 5434 5446 5451 5455 5463 5467 5476 5485 5494 5504 5518 5537 5549 5562 5575 5581 5596 5608 5613 5618 5624 5629 5636 5640 5643 5647
5433 5423 5420 5416 5417 5417 5416 5416 5416 5418 5417 5415 5413 5408 5406 5410 5418 5420 5423 5425 5438 5443 5449 5456 5462 5466 5474 5488 5499 5507 5518 5531 5545 5552 5570 5579 5592 5598 5605 5612 5620 5625 5630 5635 5639
5420 5413 5412 5410 5410 5409 5409 5410 5411 5411 5409 5408 5407 5405 5403 5405 5411 5413 5417 5419 5425 5432 5440 5447 5452 5456 5467 5475 5484 5497 5509 5520 5527 5547 5551 5573 5576 5586 5594 5603 5613 5619 5622 5626 5631
5410 5405 5403 5404 5404 5403 5403 5404 5401 5405 5401 5404 5400 5399 5399 5404 5407 5408 5407 5412 5418 5422 5429 5437 5443 5448 5456 5466 5471 5478 5490 5502 5520 5535 5544 5554 5565 5574 5585 5594 5601 5607 5613 5619 5625
5398 5398 5395 5399 5395 5396 5398 5396 5395 5394 5397 5396 5396 5394 5395 5397 5399 5400 5399 5404 5415 5416 5419 5429 5433 5439 5444 5452 5461 5469 5478 5489 5506 5517 5534 5539 5557 5565 5573 5582 5588 5594 5601 5609 5617